NOAA 16 DEB, 41131

Orbit data source: Space-Track

NOAA 16 DEB, 41131 is space debris in SSO originally from a launch on Thu, 21 Sep 2000 UTC launched from the Air Force Western Test Range (AFWTR). Debris objects in space refer to the collection of defunct objects orbiting the Earth. Examples of debris include non-operational satellites, rocket bodies, and fragments generated from explosions, collisions, or faulty payload assembly.

Loading next visibility...
Identifier
41131, 2000-055BN
Orbit
SSO
Country
Flag of USUS
Related business
Manufacturer
Unknown
Mission
Spacecraft
Bus & Motor
Unknown
Mass
Unknown
Launch date (UTC)
2000-09-21 (26 years ago)
Launch vehicle
Unknown
Launch site
Air Force Western Test Range (AFWTR)
Object type
Payload
Rocket body
Debris
Shape & HBR
Unknown shape, 0.1 m
Radar Cross Section
Medium (>0.1 m² and <1 m²)

Expand to show TLE details & history
Last TLE update: 6 days ago

TLE from 6 days ago
0 NOAA 16 DEB
1 41131U 00055BN  26167.79031010  .00002003  00000-0  11533-2 0  9993
2 41131  98.7816 169.4798 0055180  20.6412 339.6971 14.09546992538079
Epoch: 2026-06-16T18:58Z
TLE epoch observation values (Epoch: 2026-06-16T18:58:02.792Z)
Latitude
0.00003°
Longitude
-20.08913°
Altitude
826.376 km
Speed
7.459 km/s
True Right ascension
11h 17m 55s
True Declination
0° 00' 00"
Sunlit
Object was in daylight at epoch
Visualization orbit readout
Latitude
Unknown
Longitude
Unknown
Altitude
Unknown
Speed
Unknown
Apparent Right ascension
Unknown
Apparent Declination
Unknown
Sunlit
N/A
Visualization observer readout
Local Sidereal Time
21:48:29
Azimuth
Unknown
Elevation
Unknown
Doppler factor
Unknown
Orbital elements
Apogee altitude
898.028 km
Perigee altitude
818.169 km
Semi-major axis
7,236.235 km
Eccentricity
0.00552
Inclination
98.7816°
RAAN
169.4798°
Arg. of periapsis
20.6412°
True anomaly
339.47627°
Mean anomaly
339.6971°
Eccentric anomaly
339.58683°
Mean motion
3.52593 °/min
Orbital period
102.1 mins
BSTAR
0.0011533
Loading maneuver chart data...
Computing Atmospheric mass density...
Loading historical data...
Loading historical data...
Loading historical data...
Loading historical data...
Loading historical data...
Loading historical data...
Loading historical data...

Documentation

Showing up to 5 results
|